Home   Weather   Pirmasens   Past weeks

Flag for Germany Past Weather in Pirmasens, Rhineland-Palatinate, Germany — Yesterday and Last 2 Weeks

Now
65 °F

Passing clouds.


Feels Like: 65 °F
Forecast: 56 / 64 °F
Wind: 9 mph from West

Location: Ramstein

Current Time: Jul 23, 2017 at 3:00:10 am

Latest Report: Jul 23, 2017 at 12:58 am


Visibility: N/A

Pressure: 29.93 "Hg

Humidity: 85%

Dew Point: 61 °F

Location of PirmasensLocation

Past Weather in Pirmasens — Graph

°F

Pirmasens Temperature Yesterday

Maximum temperature yesterday: 82 °F (at 4:58 pm)
Minimum temperature yesterday: 62 °F (at 5:58 am)
Average temperature yesterday: 71 °F

High & Low Weather Summary for the Past Weeks

 TemperatureHumidityPressure
High90 °F (Jul 19, 1:58 pm)100% (Jul 8, 2:58 am)30.27 "Hg (Jul 8, 2:58 am)
Low43 °F (Jul 13, 5:58 am)27% (Jul 8, 4:58 pm)29.76 "Hg (Jul 10, 5:58 am)
Average68 °F75%29.97 "Hg
* Reported Jul 8 12:58 am — Jul 23 12:58 am, Pirmasens. Weather by CustomWeather, © 2017

Note: Actual official high and low records may vary slightly from our data, if they occured in-between our weather recording intervals... More about our weather records

Advertising

Pirmasens Weather History for the Previous 24 Hours

Scroll right to see more
 ConditionsComfort  
Time TempWeatherWind HumidityBarometerVisibility
12:58 am
Sun, Jul 23
66 °FPassing clouds.9 mph83%29.93 "HgN/A
11:58 pm
Sat, Jul 22
67 °FPartly cloudy.10 mph84%29.90 "HgN/A
11:25 pm72 °FThunderstorms. Passing clouds.17 mph65%29.88 "HgN/A
11:18 pm72 °FThunderstorms. Passing clouds.7 mph69%29.87 "HgN/A
10:58 pm72 °FPartly cloudy.No wind69%29.87 "HgN/A
9:58 pm73 °FPartly cloudy.3 mph61%29.85 "HgN/A
8:58 pm77 °FBroken clouds.5 mph55%29.86 "HgN/A
7:58 pm81 °FScattered clouds.7 mph45%29.89 "HgN/A
6:58 pm82 °FBroken clouds.9 mph42%29.88 "HgN/A
5:58 pm82 °FScattered clouds.14 mph45%29.88 "HgN/A
4:58 pm82 °FBroken clouds.15 mph45%29.89 "HgN/A
3:58 pm81 °FBroken clouds.7 mph49%29.90 "HgN/A
2:58 pm80 °FBroken clouds.9 mph52%29.91 "HgN/A
1:58 pm79 °FBroken clouds.12 mph54%29.92 "HgN/A
1:14 pm79 °FPartly sunny.14 mph54%29.92 "HgN/A
12:58 pm78 °FPartly sunny.7 mph56%29.92 "HgN/A
12:18 pm77 °FScattered clouds.9 mph61%29.92 "HgN/A
11:58 am75 °FPartly sunny.9 mph64%29.93 "HgN/A
10:58 am73 °FPartly sunny.6 mph74%29.93 "HgN/A
10:28 am72 °FScattered clouds.6 mph78%29.92 "HgN/A
9:58 am72 °FPartly sunny.8 mph78%29.92 "HgN/A
9:18 am68 °FPartly sunny.No wind94%29.92 "HgN/A
8:58 am68 °FPartly sunny.6 mph94%29.92 "HgN/A
7:58 am64 °FPassing clouds.3 mph100%29.90 "HgN/A
7:21 am63 °FFog.No wind100%29.90 "Hg6 mi
5:58 am62 °FFog.No wind100%29.89 "Hg5 mi
5:35 am63 °FFog.No wind100%29.89 "Hg5 mi
5:28 am63 °FFog.3 mph100%29.89 "Hg5 mi
4:58 am63 °FPassing clouds.No wind100%29.88 "HgN/A
3:58 am63 °FLight rain. Passing clouds.No wind100%29.87 "Hg6 mi
3:24 am63 °FLight rain. Partly cloudy.3 mph100%29.89 "Hg6 mi
Weather by CustomWeather, © 2017

See weather overviewHow to use our weather pages